Theta_e
323 324 327 326 326 325 325 325 325 325 326 325 326 325 326 326 327 331 336 339 342 343 344 343 345 348 344 348 354 358 356 355 353 352 353 351 350 350 350 348 347 346 341 343
324 327 325 323 323 323 324 324 325 326 325 325 325 325 326 327 331 333 335 337 338 339 339 339 339 341 346 349 351 355 356 355 356 353 353 352 351 350 350 348 349 344 338 334
326 325 322 323 324 324 325 325 325 324 324 324 325 326 326 328 330 331 333 334 335 335 335 333 332 337 343 344 349 351 352 353 354 354 354 354 352 351 350 349 349 348 342 337
325 322 322 323 323 323 324 325 323 322 323 324 324 324 326 329 331 331 331 332 331 332 330 327 330 331 333 339 342 347 348 350 352 351 353 351 352 351 350 348 346 348 345 348
325 324 323 323 324 323 322 322 321 322 323 323 323 323 325 329 331 331 329 330 330 329 327 323 325 327 328 330 337 342 346 348 350 352 351 350 352 352 350 349 349 346 349 350
324 323 322 323 322 323 322 321 323 323 323 322 323 324 331 330 332 329 328 328 328 328 327 323 323 322 323 323 329 331 339 341 345 348 349 350 351 349 347 348 348 348 347 347
325 325 323 321 323 323 323 324 324 323 324 325 327 326 332 330 328 327 328 327 326 325 324 323 323 321 320 320 319 325 323 328 326 330 336 341 343 341 343 343 345 345 346 343
324 325 324 322 322 322 322 322 323 322 323 323 326 323 332 328 326 326 326 327 326 324 322 320 319 318 318 320 319 317 317 318 320 320 322 322 324 324 330 330 333 333 336 336
326 325 322 321 321 321 323 324 326 325 322 321 322 329 330 327 326 325 325 326 325 324 322 321 320 319 318 318 319 321 321 320 319 319 318 318 318 321 319 319 321 321 321 326
324 325 323 322 320 320 321 323 323 325 327 326 323 324 326 329 326 323 324 325 325 323 322 319 318 317 317 318 318 317 315 317 318 317 318 318 319 319 319 320 319 321 319 318
322 323 323 320 321 322 324 324 322 323 325 326 326 325 327 326 324 324 323 323 326 323 322 322 320 318 317 317 318 313 313 311 311 312 312 312 311 310 312 313 312 309 316 322
323 323 324 323 323 322 321 321 322 325 326 325 326 326 324 323 322 320 320 321 324 325 323 321 322 321 319 318 315 314 312 311 310 310 309 308 306 307 307 307 307 311 312 308
322 323 325 324 323 322 322 321 321 322 323 324 326 325 324 322 321 319 318 319 321 325 323 322 322 322 320 319 317 315 312 312 311 311 311 311 307 306 305 305 306 306 306 312
318 322 324 325 325 323 323 321 321 322 324 323 323 323 322 322 321 319 319 319 319 324 324 323 323 322 321 318 314 315 314 313 313 312 312 312 311 311 310 312 308 312 311 310
320 323 322 322 322 321 320 319 319 320 320 321 321 320 320 320 320 318 318 318 319 320 323 323 323 323 322 320 318 317 315 313 313 312 312 312 310 311 313 313 313 313 314 315
321 324 322 321 320 320 320 319 319 319 318 318 317 318 319 318 318 318 318 319 319 320 321 323 323 324 322 319 318 316 316 315 314 314 313 312 312 311 311 312 313 313 314 313
322 322 323 324 321 319 319 318 318 317 317 317 318 319 319 320 318 318 319 319 321 322 323 323 324 323 322 320 317 316 316 316 315 315 313 312 312 311 311 311 312 313 313 313
322 322 322 322 321 322 320 318 317 316 317 318 318 318 318 318 318 317 319 320 322 322 322 321 323 322 320 318 317 316 316 315 315 314 313 312 311 311 311 311 312 313 312 313
319 321 321 325 321 319 318 320 318 319 319 318 318 318 317 317 317 319 321 322 322 321 320 318 318 318 318 317 316 316 316 315 314 313 313 312 311 311 311 311 311 312 312 311
318 319 321 321 322 320 319 319 316 316 318 318 317 317 317 317 318 322 319 319 319 318 318 318 317 316 316 316 315 315 314 314 313 313 312 311 311 311 311 311 311 310 309 311
320 320 322 321 322 319 318 318 317 318 322 319 318 317 316 317 316 318 318 317 318 317 316 316 315 315 314 314 314 313 313 312 312 311 310 310 310 310 309 309 311 310 311 312
320 321 321 320 322 322 317 317 317 321 319 317 316 316 315 315 315 317 316 317 316 315 314 313 313 313 313 312 312 312 311 311 310 310 309 309 310 309 309 309 308 311 311 311
319 318 321 320 321 319 318 318 317 316 315 314 314 314 315 314 314 316 316 316 315 314 313 312 311 311 311 310 309 308 308 307 307 307 307 308 308 308 308 308 309 309 309 309
318 316 317 318 316 315 314 314 314 313 313 312 313 313 313 314 314 316 315 315 313 313 312 311 310 309 308 308 307 307 306 306 305 306 306 307 308 307 307 308 306 307 307 308
315 315 315 316 314 313 313 313 312 311 311 310 310 310 311 314 314 313 313 312 311 310 309 309 308 307 307 307 306 305 305 304 305 305 306 306 307 306 306 305 306 306 306 306
313 314 315 316 313 313 312 311 311 310 311 311 312 313 313 314 313 312 310 309 308 308 307 307 307 306 305 304 303 303 303 304 305 305 306 306 306 305 305 306 306 305 305 304
Wind_Speed
8 12 4 12 9 10 8 5 7 4 3 6 13 11 6 8 4 5 11 9 11 13 15 17 14 13 11 9 7 12 16 19 22 21 19 20 20 19 18 18 19 27 24 20
8 3 5 3 5 7 4 7 8 4 4 8 12 13 11 7 10 7 9 10 13 16 16 20 19 15 10 5 6 11 14 18 19 20 20 18 18 18 19 19 21 21 25 20
8 12 1 7 5 7 8 7 8 9 11 16 16 18 15 12 12 8 9 12 15 16 18 19 20 18 13 6 3 3 11 15 20 21 19 18 17 18 18 18 18 19 19 20
2 5 4 7 6 6 13 6 6 10 11 11 2 7 8 18 15 9 9 14 15 15 16 18 19 21 20 14 6 7 9 12 17 21 19 20 19 19 19 17 19 18 19 19
6 4 4 8 5 6 11 8 12 13 14 14 17 10 1 19 15 8 11 14 14 14 15 17 19 20 23 21 11 1 8 12 13 16 17 17 22 17 17 17 18 20 19 21
7 2 5 8 7 7 10 13 15 16 15 14 20 10 7 6 9 6 11 13 13 12 12 14 16 19 25 25 22 18 7 4 7 9 17 15 14 15 19 20 16 13 15 14
10 13 5 5 10 12 10 12 10 9 10 8 8 6 10 10 8 8 9 11 11 10 10 11 14 16 21 24 25 19 23 19 20 15 10 4 5 7 10 16 17 15 17 9
12 8 8 4 4 9 12 7 8 14 11 9 11 7 9 9 9 8 9 9 8 8 8 12 13 15 16 20 22 21 17 17 18 20 20 17 13 14 11 12 7 3 5 6
9 5 6 0 3 5 10 8 8 9 15 12 16 10 11 8 6 6 4 7 5 4 5 8 10 11 14 15 15 16 17 18 19 18 19 20 17 14 10 9 6 6 7 6
3 10 6 6 6 11 9 9 6 8 7 11 12 9 2 10 5 3 5 5 6 2 6 7 9 9 6 9 10 10 14 12 14 14 15 14 15 14 12 10 7 6 3 5
7 6 3 2 10 8 5 6 7 7 10 8 10 3 7 6 6 5 8 5 7 8 7 7 3 2 5 5 3 9 12 13 15 13 13 14 15 15 13 10 8 6 4 4
7 5 10 14 9 5 10 12 12 8 10 7 10 11 8 5 5 5 9 10 4 7 5 9 6 3 2 2 7 9 11 11 14 15 17 14 15 14 10 9 11 9 6 5
2 5 8 12 10 6 8 8 9 9 9 13 12 10 8 5 11 8 12 13 10 13 15 14 9 7 2 4 4 7 11 13 15 14 14 15 15 12 12 12 12 10 9 9
3 9 11 12 18 13 9 9 12 12 11 14 14 16 12 9 9 13 14 12 14 15 18 18 13 10 7 7 10 8 3 1 1 4 7 13 18 17 15 11 10 10 12 13
4 12 14 16 17 18 16 17 17 19 18 18 18 20 18 16 13 11 12 14 16 14 19 20 16 13 8 9 9 6 5 6 4 5 6 8 12 11 11 13 11 10 9 8
7 11 12 16 15 16 18 19 19 21 21 21 20 20 16 16 7 10 11 15 19 13 10 17 10 11 12 11 9 6 6 6 7 7 8 9 9 10 11 11 11 11 10 11
11 11 12 15 11 8 13 11 12 14 18 17 16 14 8 9 11 13 14 15 17 8 2 3 1 8 13 10 9 9 9 6 8 10 11 10 11 11 11 10 11 10 11 12
12 13 8 12 13 15 5 0 7 9 10 9 8 9 10 10 10 14 7 14 8 6 5 2 4 8 9 7 7 8 8 10 12 13 13 13 13 15 13 13 13 13 13 13
12 10 9 9 10 11 16 9 2 9 10 6 6 7 11 12 11 3 6 6 4 5 2 5 7 6 5 4 6 6 10 12 13 15 16 16 17 17 17 15 16 15 16 16
8 8 10 11 9 8 5 4 2 9 11 11 8 6 10 11 10 6 4 5 5 6 4 4 2 2 2 0 5 8 12 14 15 16 16 18 19 19 18 17 17 17 18 16
8 8 11 10 8 9 10 5 4 7 4 7 9 10 11 10 12 2 7 4 1 0 1 3 4 5 4 5 8 12 13 14 16 17 18 18 18 17 19 17 17 21 17 18
8 6 6 7 10 9 1 4 9 8 9 9 12 15 18 17 15 12 10 7 4 1 3 5 7 8 9 11 12 13 14 15 16 17 17 17 16 16 15 17 22 16 16 14
5 8 6 2 1 4 5 8 7 10 17 20 18 16 16 21 18 11 7 5 2 2 4 6 10 13 12 11 11 14 15 16 17 18 18 17 18 18 17 15 15 16 16 14
9 12 8 10 7 11 13 14 14 15 18 18 16 18 17 19 15 6 4 6 12 9 5 6 10 12 12 12 13 15 17 17 18 19 18 17 17 16 15 14 18 17 15 17
12 11 10 13 16 18 17 11 12 14 17 18 19 21 20 8 5 5 2 3 8 10 9 9 10 11 13 14 16 16 17 17 16 15 15 15 13 14 18 16 17 13 14 16
12 8 9 9 13 13 13 12 13 15 15 14 14 15 5 2 3 6 2 4 3 8 11 11 10 12 13 17 16 15 14 13 14 15 13 13 14 15 15 15 15 16 18 20
Wind_Direction
207 238 240 27 345 342 332 298 285 296 3 279 271 280 275 250 151 44 41 35 18 20 13 9 4 354 327 295 260 230 222 219 211 216 219 216 221 228 230 229 225 220 233 217
215 206 42 313 302 284 273 265 246 291 237 280 284 266 259 238 92 61 52 46 31 23 18 11 9 357 356 5 287 264 238 225 220 217 220 224 227 231 237 227 241 229 231 225
301 72 84 264 223 268 231 301 342 315 317 269 248 259 223 126 122 90 60 41 38 30 25 19 15 13 358 296 241 275 258 245 234 217 227 225 222 224 227 226 227 238 225 229
46 83 269 259 274 317 294 86 285 283 285 286 1 284 171 155 146 101 50 41 32 32 34 32 30 28 21 5 315 234 228 229 236 232 226 229 227 228 228 224 221 226 221 212
80 211 251 273 4 335 297 341 290 281 274 278 267 238 298 157 145 81 56 46 38 38 41 41 48 50 48 35 24 260 223 211 221 212 225 234 226 236 229 214 201 192 207 210
313 46 271 340 308 267 313 286 281 261 254 252 243 232 100 113 71 76 63 51 46 46 46 52 55 53 58 42 47 54 65 108 198 211 214 223 208 210 211 210 201 204 224 233
177 216 150 278 275 203 251 297 287 247 215 250 111 211 69 103 78 57 55 42 46 44 54 56 51 45 51 47 34 46 55 58 53 69 83 148 198 153 199 220 211 168 169 162
281 199 174 132 329 328 303 304 290 298 290 314 139 237 110 101 92 65 59 69 38 48 64 72 68 58 61 52 58 40 44 51 47 41 48 50 66 67 85 105 129 156 181 183
320 235 119 197 306 312 18 259 14 306 279 263 277 104 141 144 126 78 51 99 48 71 109 92 75 56 53 53 53 43 52 44 46 43 40 39 40 44 59 70 99 134 141 163
14 286 189 103 289 231 264 349 261 211 270 272 261 254 99 160 89 48 3 77 130 125 166 139 92 57 38 38 49 56 61 59 48 39 42 38 35 40 40 35 42 28 312 214
318 257 223 253 223 279 200 231 218 304 301 287 276 290 47 56 89 354 329 330 155 175 205 198 166 55 19 11 81 89 75 52 51 36 34 41 35 26 19 14 21 12 21 63
56 308 276 276 92 303 280 280 295 276 270 248 284 280 61 91 44 311 288 288 224 178 220 226 230 255 332 109 119 125 96 64 41 21 11 16 15 12 10 359 351 320 331 334
70 237 276 244 192 185 254 258 259 269 282 270 280 271 147 181 243 307 305 290 268 206 193 205 232 245 190 163 140 131 79 56 44 27 355 352 4 5 1 1 346 336 327 279
326 271 263 278 304 324 276 249 242 250 267 273 257 263 269 255 326 321 307 306 304 213 203 201 214 230 219 176 150 158 139 100 318 321 320 326 340 350 350 351 335 345 334 336
242 274 278 276 282 288 285 280 271 264 258 259 274 287 299 307 311 314 303 290 283 284 197 198 203 212 221 192 195 226 246 253 259 299 305 319 329 339 326 321 328 325 332 327
239 267 284 281 276 272 276 277 270 272 270 269 273 278 289 282 278 298 323 319 299 287 249 193 211 181 192 198 200 206 265 234 270 286 307 308 324 321 314 310 313 310 310 303
271 263 276 279 292 307 280 276 274 267 257 268 268 282 347 318 309 335 319 309 302 332 46 27 174 211 204 228 207 238 257 278 290 295 306 304 313 315 311 308 307 309 294 300
261 264 266 272 280 270 288 345 299 303 313 302 285 285 274 306 340 307 322 301 323 39 44 330 134 185 185 207 217 237 266 282 291 295 301 307 310 312 312 314 313 309 308 301
225 253 265 259 268 281 294 354 347 313 302 313 254 293 340 335 316 26 12 20 30 66 88 86 98 123 148 225 247 266 281 292 296 299 301 301 305 308 310 312 310 307 305 301
227 227 255 260 250 262 330 85 32 329 272 30 11 355 337 322 289 34 355 102 97 75 75 63 27 330 174 166 313 295 296 298 299 303 303 301 302 301 302 303 304 305 301 294
188 224 226 247 265 272 294 21 77 263 22 347 343 327 316 320 340 336 270 273 195 281 307 301 319 310 343 328 309 303 303 300 300 301 302 302 300 301 298 303 296 302 298 289
251 199 231 240 242 259 64 251 249 7 323 320 306 325 324 314 303 284 294 202 150 307 334 328 302 302 311 305 302 305 306 305 303 302 302 301 303 303 292 292 298 296 295 299
255 267 320 276 346 29 316 284 273 287 300 299 304 301 295 293 295 270 244 292 29 318 309 279 320 311 306 311 313 308 306 309 306 302 301 301 302 296 304 305 303 306 308 297
204 238 241 280 291 305 321 301 287 284 288 296 292 296 295 288 295 288 287 302 301 292 308 293 302 305 307 309 313 310 310 310 307 302 299 300 298 297 301 302 306 293 292 294
294 315 287 283 283 283 281 306 325 312 302 301 294 283 288 310 331 81 45 311 325 314 310 310 308 307 309 312 310 312 310 313 309 310 305 303 299 304 307 296 311 306 299 291
267 277 270 280 328 317 302 306 308 299 286 310 325 305 319 92 85 280 299 307 301 302 310 312 318 324 313 311 312 311 311 313 315 314 312 312 310 315 313 307 308 311 301 300